TIME,DELAY(SENSOR),PRES,T(CTD),SAL,OXYGEN,RAWTEMP,T(OPTODE),TCPHASE,FLUOR,BETA(BETA700),BETA(BETA412),BETA(BETA440),CDOM,C(CSC),ED(ED412.40),ED(ED444.00),ED(ED489.70),ED(ED554.30),LU(LU411.80),LU(LU443.40),LU(LU489.60),LU(LU554.10),COMP,TILTX,TILTX(TILTY),CHECK
1372974429,5809,497.3599853515625000,6.1902999877929690,34.1632003784179700,57.7089385986328100,612.6574707031250000,6.1746139526367190,51.8856010437011700,52,103,85,79,78,15424,2147745773,2147425133,2148005906,2147875684,2147632630,2147066971,2148250761,2147196827,3244,4,13,51725
1372974563,5809,486.8800048828125000,6.3621997833251950,34.1473007202148440,64.2295989990234400,607.5181884765625000,6.3411331176757810,50.9573097229003900,52,105,87,80,76,15426,2147745883,2147426313,2148006628,2147874066,2147633545,2147069696,2148248283,2147197394,2504,4,13,37682
1372974737,5807,471.4700012207031000,6.5013999938964840,34.1335983276367200,70.6281967163086000,602.9769897460938000,6.4880561828613280,50.0835418701171900,52,104,86,80,79,15424,2147746724,2147428608,2148008036,2147873837,2147632365,2147070144,2148243940,2147197568,1349,4,13,25043
1372974832,5810,461.1099853515625000,6.6367998123168945,34.1193008422851560,76.5527572631836000,598.6826171875000000,6.6268138885498050,49.3000984191894500,53,103,87,79,78,15419,2147743350,2147425673,2148006107,2147873609,2147628032,2147073590,2148245266,2147194971,271,3,13,19286
1372974931,5806,450.1199951171875000,6.8224000930786130,34.1039009094238300,84.8048629760742200,593.2689819335938000,6.8014869689941410,48.2528381347656250,51,104,82,80,78,15424,2147741632,2147427666,2148006345,2147872137,2147630610,2147073161,2148245961,2147198070,2833,4,13,29490
1372975058,5810,437.3699951171875000,6.9913997650146480,34.0974998474121100,93.5120468139648400,588.0756835937500000,6.9687919616699220,47.2024612426757800,51,103,92,81,77,15419,2147744941,2147423158,2148005997,2147871414,2147627931,2147071067,2148243154,2147195099,2433,4,13,60496
1372975190,5805,426.9400024414062500,7.1111998558044430,34.0900993347168000,99.3292770385742200,584.2587280273438000,7.0916042327880860,46.5194091796875000,51,104,85,79,76,15419,2147742125,2147424612,2148005787,2147871872,2147624228,2147074550,2148241334,2147194660,1848,3,13,59643
1372975346,5810,416.3699951171875000,7.2925000190734860,34.0887985229492200,106.7245025634765600,578.6005249023438000,7.2734050750732420,45.6636009216308600,50,104,84,80,77,15425,2147740324,2147424530,2148006336,2147871533,2147625069,2147076397,2148241910,2147198866,3488,4,13,57288
1372975533,5807,405.0100097656250000,7.5342998504638670,34.0875015258789060,112.6252975463867200,571.1212768554688000,7.5132808685302730,44.9497489929199200,51,106,86,80,76,15423,2147740205,2147426925,2148007652,2147872740,2147622994,2147078080,2148238765,2147200749,2050,3,13,29197
1372975698,5808,393.0799865722656000,7.7972002029418945,34.0890998840332000,122.4549026489257800,562.7385253906250000,7.7815508842468260,43.8641281127929700,51,106,86,79,75,15422,2147740352,2147423963,2148005513,2147871853,2147623981,2147081426,2148240265,2147200000,856,3,13,637
1372975819,5807,382.6499938964844000,8.0131998062133790,34.0885009765625000,129.6130981445312500,555.9124145507812000,7.9995570182800290,43.0893898010253900,50,104,86,80,75,15423,2147739894,2147425426,2148004964,2147873846,2147622454,2147080329,2148236242,2147200237,3117,3,13,20431
1372975953,5809,370.9800109863281000,8.2530002593994140,34.0876998901367200,140.7704925537109400,548.1948242187500000,8.2455682754516600,41.9764785766601560,50,105,86,79,75,15421,2147736475,2147424182,2148006710,2147872438,2147622921,2147083136,2148238656,2147200274,1546,3,13,28524
1372976074,5809,360.3099975585937500,8.5264997482299800,34.0862007141113300,147.4732971191406200,539.9937133789062000,8.5064525604248050,41.2736816406250000,50,105,88,79,74,15423,2147736146,2147426020,2148008521,2147870491,2147619821,2147087204,2148233307,2147201609,478,3,13,22351
1372976195,5809,349.6700134277344000,8.8500995635986330,34.0882987976074200,157.5126953125000000,529.2957763671875000,8.8459568023681640,40.2834014892578100,50,106,84,79,73,15422,2147736073,2147426294,2148009216,2147874221,2147616694,2147091931,2148231899,2147200228,2708,3,13,43100
1372976329,5809,338.3299865722656000,9.1868000030517580,34.0948982238769500,179.2057037353515600,518.9915161132812000,9.1721363067626950,38.5102882385253900,49,104,85,79,71,15424,2147737938,2147426624,2148009746,2147873417,2147617014,2147093997,2148229046,2147200539,2483,3,13,20912
1372976472,5808,327.4200134277344000,9.2761001586914060,34.1003990173339840,186.6226959228515600,514.9024047851562000,9.3013534545898440,37.9373588562011700,49,103,88,79,71,15424,2147736877,2147428178,2148012571,2147874066,2147617481,2147094363,2148229650,2147201453,1256,3,13,29380
1372976635,5808,315.4100036621094000,9.7481002807617190,34.1123008728027340,192.3639068603515600,501.1492004394531000,9.7350730895996100,37.3258705139160160,49,104,91,79,71,15418,2147732388,2147428635,2148021412,2147872420,2147612059,2147100342,2148231936,2147204534,2696,3,13,20743
1372976773,5809,304.2900085449219000,10.2988996505737300,34.1464004516601560,215.8368988037109400,483.7340087890625000,10.2823896408081050,35.6128692626953100,49,106,88,80,70,15423,2147731108,2147430637,2148023515,2147870802,2147612224,2147104265,2148230025,2147204032,1482,3,13,30056
1372976936,5805,289.4100036621094000,10.8175001144409180,34.1763000488281250,225.7895050048828000,466.9140930175781000,10.8091096878051760,34.7860984802246100,50,104,85,80,69,15426,2147732662,2147434212,2148033133,2147873792,2147611090,2147113206,2148233883,2147206509,1020,3,13,35715
1372977040,5807,278.5899963378906000,11.0229997634887700,34.1626014709472660,217.8735046386718800,460.1664123535156000,11.0199298858642580,35.1105690002441400,48,103,85,80,68,15423,2147732059,2147438994,2148054656,2147871734,2147608905,2147114660,2148244434,2147206125,3364,4,13,14438
1372977139,5810,267.8299865722656000,11.3789997100830080,34.1664009094238300,213.4295043945312500,447.8530883789062500,11.4039297103881840,35.1627502441406250,48,104,86,80,69,15422,2147729206,2147439296,2148048054,2147872740,2147607168,2147115547,2148238189,2147206573,88,2,13,4916
1372977265,5807,256.1799926757812500,12.2707004547119140,34.2164993286132800,212.4176940917968800,420.6701965332031000,12.2487201690673830,34.7863807678222660,48,104,87,81,68,15423,2147729773,2147442560,2148053366,2147873654,2147602797,2147123885,2148235757,2147203364,1804,4,14,37906
1372977397,5807,245.7599945068359400,12.9927997589111330,34.2845993041992200,225.4434967041015600,396.7249145507812500,12.9898700714111330,33.6960411071777340,48,103,87,79,67,15419,2147726537,2147438518,2148043483,2147873993,2147600237,2147123821,2148229056,2147200896,1565,3,13,24975
1372977542,5808,234.3500061035156200,13.4400997161865230,34.3222999572753900,226.1233978271484400,382.1802062988281000,13.4388198852539060,33.4377403259277340,48,102,85,79,66,15419,2147723373,2147444251,2148054930,2147877531,2147596617,2147135085,2148233600,2147211529,417,3,14,1459
1372977685,5809,223.4499969482422000,13.7398996353149410,34.3462982177734400,223.6020050048828000,372.6380004882812500,13.7329101562500000,33.4275817871093750,48,103,88,80,66,15411,2147725138,2147465536,2148118994,2147876964,2147596269,2147148662,2148257362,2147210395,2039,3,13,15786
1372977839,5805,212.4900054931640600,14.3158998489379880,34.3944015502929700,222.5462951660156200,353.4862060546875000,14.3221597671508790,33.1962814331054700,49,104,87,79,66,15413,2147722404,2147455396,2148068132,2147875529,2147593490,2147149632,2148232228,2147210706,448,2,14,47496
1372977968,5809,201.7100067138672000,14.7489004135131840,34.3936996459960940,218.9895019531250000,338.9175109863281000,14.7696199417114260,33.1719017028808600,49,108,86,81,65,15412,2147724589,2147478884,2148122276,2147876416,2147589458,2147163337,2148254235,2147211181,401,3,13,21140
1372978023,5810,197.2200012207031200,15.0096998214721680,34.4184989929199200,216.2657012939453000,330.2260131835937500,15.0362701416015620,33.1918983459472660,50,107,86,80,66,15402,2147724864,2147480457,2148127643,2147873920,2147589458,2147169216,2148256164,2147213988,2852,2,14,16756
1372978078,5806,193.0200042724609400,15.5963001251220700,34.4808998107910160,212.8047027587890600,311.6264953613281000,15.6062698364257810,33.1109390258789060,52,116,88,81,65,15399,2147727021,2147477952,2148116589,2147875309,2147589110,2147164470,2148251968,2147214372,1741,3,14,58679
1372978156,5809,187.5200042724609400,16.1727008819580080,34.5545005798339840,211.9490051269531200,293.9049072265625000,16.1486797332763670,32.9009513854980500,57,113,85,81,67,15357,2147727808,2147480201,2148111332,2147876114,2147586349,2147174162,2148240603,2147213732,2429,3,15,60906
1372978211,5808,183.9900054931640600,16.3514003753662100,34.5745010375976560,211.7209014892578000,287.4852905273437500,16.3450298309326170,32.8211097717285160,57,114,87,82,65,15392,2147727442,2147483812,2148115072,2147873426,2147582838,2147178020,2148241389,2147211776,2217,3,15,63717
1372978277,5808,179.8899993896484400,16.6700992584228500,34.6076011657714840,211.1024017333984400,278.7018127441406000,16.6135807037353500,32.7296104431152340,56,119,91,81,65,15388,2147726683,2147490523,2148118418,2147872448,2147585453,2147179977,2148242029,2147213120,1539,3,14,27954
1372978343,5806,175.9600067138672000,17.0307006835937500,34.6572990417480500,210.5680999755859400,264.4761047363281000,17.0483303070068360,32.5568504333496100,59,114,87,81,65,15387,2147727168,2147495771,2148134784,2147874925,2147584832,2147190345,2148244333,2147215936,565,2,14,47598
1372978409,5809,172.4100036621093800,17.3948001861572270,34.7126007080078100,212.1403961181640600,253.7642059326172000,17.3755702972412100,32.3179016113281250,61,120,87,82,65,15378,2147730587,2147510985,2148159972,2147873060,2147583350,2147197220,2148258523,2147217069,2803,2,14,26429
1372978491,5808,168.9199981689453000,17.5750999450683600,34.7449989318847660,212.7388000488281200,248.4613952636718800,17.5375404357910160,32.2107810974121100,64,114,91,81,65,15382,2147732635,2147531867,2148195840,2147874304,2147581083,2147210971,2148267081,2147216164,1912,3,15,21652
1372978689,5806,165.7100067138672000,18.0814990997314450,34.8106994628906250,212.5924987792968800,231.1468963623047000,18.0663108825683600,31.9766902923584000,75,116,87,82,64,15372,2147747885,2147573376,2148280576,2147872438,2147586121,2147237869,2148305974,2147219766,2700,2,15,52482
1372978889,5808,160.8500061035156200,18.3617992401123050,34.8488998413085940,213.1448059082031200,222.4414978027343800,18.3321609497070300,31.8261508941650400,79,119,88,81,64,15369,2147773677,2147645229,2148405074,2147875876,2147592539,2147277421,2148360960,2147225782,1998,2,15,2777
1372978999,5809,156.5500030517578000,18.8024997711181640,34.9079017639160160,212.5489044189453000,207.5361022949218800,18.7873802185058600,31.6529502868652340,86,119,91,82,63,15364,2147799771,2147706203,2148514249,2147877092,2147603776,2147306441,2148400310,2147227236,2386,2,15,26797
1372979104,5806,151.8699951171875000,18.9242992401123050,34.9188995361328100,213.7012023925781200,203.3117065429687500,18.9164199829101560,31.5329399108886720,83,120,87,82,63,15360,2147840612,2147800896,2148668598,2147879049,2147619776,2147354706,2148470994,2147236653,1031,2,15,18502
1372979170,5809,147.9799957275390600,19.1413002014160160,34.9219017028808600,212.3081054687500000,196.3123931884765600,19.1302394866943360,31.5126590728759770,90,122,88,82,63,15352,2147890752,2147899026,2148826432,2147876891,2147640155,2147414610,2148540169,2147239616,579,2,14,18976
1372979236,5808,144.3800048828125000,19.2042999267578120,34.9295005798339840,211.6981048583984400,194.0789031982422000,19.1984806060791000,31.5152702331542970,92,121,86,83,63,15345,2147952612,2148015552,2149007277,2147877641,2147660169,2147466916,2148614665,2147247908,3442,2,15,43445
1372979313,5809,140.1300048828125000,19.3407001495361330,34.9402008056640600,211.1990966796875000,189.6490020751953000,19.3338394165039060,31.4817790985107420,98,124,89,82,63,15349,2148049380,2148195483,2149281142,2147881508,2147696009,2147550482,2148723648,2147254628,2420,2,15,53148
1372979381,5804,136.4900054931640600,19.4538002014160160,34.9505996704101560,210.9333953857422000,186.1143035888672000,19.4418601989746100,31.4484291076660160,99,125,91,82,63,15340,2148160603,2148377042,2149561600,2147887104,2147733037,2147636059,2148832786,2147262162,2345,2,15,28444
1372979458,5807,132.5200042724609400,19.6711997985839840,34.9724006652832000,210.8910980224609400,179.1371002197265600,19.6551303863525400,31.3559703826904300,109,124,88,83,63,15337,2148311232,2148625773,2149910464,2147889115,2147785993,2147746578,2148970724,2147275584,2459,2,15,7033
1372979546,5807,128.7599945068359400,19.9785003662109380,34.9952011108398440,211.0720062255859400,169.7424926757812500,19.9423809051513670,31.2192592620849600,120,124,89,83,63,15317,2148507584,2148907776,2150290816,2147892690,2147847195,2147862345,2149104832,2147289097,1266,2,15,1556
1372979667,5807,125.3099975585937500,20.2775993347167970,35.0294990539550800,212.5585937500000000,159.2830047607422000,20.2623596191406250,30.9984893798828120,139,128,88,83,63,15294,2148781211,2149297380,2150783890,2147900873,2147933686,2147998390,2149269979,2147301549,332,2,15,43629
1372979815,5806,120.9300003051757800,20.9388999938964840,35.1701011657714840,223.4252014160156200,137.8993072509765600,20.9171791076660160,30.1514892578125000,140,134,94,84,61,15273,2149328402,2150058176,2151726592,2147912000,2148123465,2148306148,2149602715,2147333942,536,2,15,34832
1372979914,5808,116.7500000000000000,21.3481006622314450,35.2288017272949200,227.1851043701172000,126.7678985595703100,21.2584590911865230,29.8195095062255860,152,131,90,84,60,15255,2149930166,2150860617,2152661796,2147923099,2148341522,2148623670,2149934272,2147366921,559,2,15,57986
1372980013,5809,112.8600006103515600,21.5046997070312500,35.2182006835937500,230.8170928955078000,119.3955001831054700,21.4846706390380860,29.5478897094726560,172,129,96,83,61,15239,2150636982,2151801115,2153707757,2147939584,2148596214,2148971172,2150300973,2147403748,894,2,15,49479
1372980118,5810,108.6600036621093800,21.7457008361816400,35.1903991699218750,230.7716979980468800,110.9852981567382800,21.7429199218750000,29.4416694641113280,129,121,91,83,61,15268,2151722011,2153126738,2155068224,2147962605,2148960466,2149478811,2150822089,2147455972,303,1,15,14051
1372980217,5808,104.8000030517578100,21.9937992095947270,35.2249984741210940,234.2964019775390600,103.2065963745117200,21.9819602966308600,29.1746997833251950,98,120,90,83,60,15291,2152978761,2154565229,2156479140,2147997741,2149477056,2150180169,2151471634,2147522587,3166,2,15,64104
1372980327,5810,100.8000030517578100,22.1940002441406250,35.2411994934082000,235.3522033691406200,98.2273864746093800,22.1350803375244140,29.0617504119873050,93,120,92,82,60,15295,2154735396,2156437686,2158190528,2148035510,2150233517,2151133522,2152305581,2147601389,2102,2,15,40103
1372980409,5810,97.6100006103515600,22.6046009063720700,35.3114013671875000,237.8630065917968800,84.2865982055664000,22.5642299652099600,28.7686195373535160,81,121,89,84,59,15294,2156419995,2158263058,2159924809,2148083117,2151126976,2152218733,2153219245,2147694153,2592,2,15,14810
1372980464,5809,94.9499969482421900,22.7327995300292970,35.3269996643066400,240.8914947509765600,78.0870590209961000,22.7553005218505860,28.5526695251464840,81,120,92,83,58,15291,2157969014,2159955858,2161555958,2148133878,2152047634,2153311872,2154109833,2147772525,1933,1,15,39564
1372980519,5807,92.3799972534179700,22.8565998077392580,35.3363990783691400,243.8890991210937500,74.9012832641601600,22.8535499572753900,28.3785495758056640,75,121,88,83,59,15292,2159694171,2161842477,2163410020,2148189933,2153123501,2154562112,2155144914,2147872841,1214,2,15,21198
1372980574,5804,89.8000030517578100,22.9799995422363280,35.3532981872558600,245.6275939941406200,71.2380294799804700,22.9665699005126950,28.2557601928710940,76,120,92,84,56,15284,2161748617,2164067995,2165592100,2148272786,2154445284,2156097362,2156389357,2147988214,183,1,15,47013
1372980629,5805,87.3099975585937500,22.9818992614746100,35.3247985839843750,247.3549041748047000,70.7399978637695300,22.9819393157959000,28.1739292144775400,73,123,93,84,57,15281,2164142692,2166632996,2168088886,2148372900,2155999460,2157880685,2157803794,2148121810,2834,1,15,36717
1372980686,5811,84.8799972534179700,23.1581001281738280,35.3190002441406250,247.7140960693359400,64.9326629638671900,23.1612300872802730,28.0859394073486330,71,123,90,83,57,15276,2166942701,2169599616,2170963291,2148505563,2157831981,2159960950,2159465280,2148284900,2344,1,15,61619
1372980741,5809,82.9499969482421900,23.2560005187988280,35.3250007629394500,249.0211944580078000,62.2108993530273440,23.2453098297119140,27.9954490661621100,71,125,92,84,55,15265,2169675382,2172501339,2173783515,2148617682,2159686107,2162063515,2161120137,2148435995,1735,1,16,41978
1372980807,5810,80.9700012207031200,23.3780002593994140,35.3230018615722660,249.5567016601562500,58.3147506713867200,23.3657302856445300,27.9241008758544920,72,124,91,85,57,15266,2173612379,2176705600,2177956178,2148821915,2162362779,2165088557,2163533824,2148671204,1568,1,16,57784
1372980873,5808,79.1699981689453100,23.4615001678466800,35.3258018493652340,250.5299072265625000,55.8358993530273440,23.4423694610595700,27.8516998291015620,70,124,91,85,56,15266,2177508150,2180794185,2181968384,2149033563,2165158500,2168186468,2165946249,2148900178,1178,1,16,33773
1372980950,5808,77.1900024414062500,23.5730991363525400,35.3264007568359400,251.0330963134765600,52.0874786376953100,23.5583305358886720,27.7838096618652340,70,125,90,84,57,15259,2182225517,2185715318,2186769408,2149320713,2168595776,2171945938,2168842340,2149187373,612,1,15,44972
1372981032,5808,74.6800003051757800,23.6221008300781250,35.3264007568359400,251.9239959716797000,50.0313186645507800,23.6219596862792970,27.7205696105957030,68,126,91,86,56,15252,2187657142,2191145929,2191886564,2149680795,2172876059,2176402541,2172094948,2149518546,3225,1,15,56238
1372981087,5802,72.2099990844726600,23.7355995178222660,35.3138008117675800,252.0823974609375000,46.8019790649414060,23.7219390869140620,27.6740493774414060,66,126,91,85,57,15247,2190663981,2193782043,2194101385,2149948790,2175661677,2179054884,2173836425,2149706779,2836,1,16,51943
1372981142,5807,69.7799987792968800,23.9545001983642580,35.3086013793945300,251.4644012451172000,39.6072616577148440,23.9448604583740230,27.6117897033691400,66,127,96,85,58,15241,2195065956,2198024758,2198067894,2150356571,2179343680,2182727030,2176454802,2149996342,3226,1,16,45273
1372981197,5805,67.6500015258789000,24.0228004455566400,35.3193016052246100,252.0785064697265600,37.5215988159179700,24.0095291137695300,27.5600891113281250,66,125,92,86,57,15243,2198546468,2201459958,2201353801,2150774573,2182624164,2185984667,2178788617,2150264758,2759,1,16,56303
1372981252,5808,65.8799972534179700,24.0338993072509770,35.3218994140625000,252.2212066650390600,36.8969001770019500,24.0289001464843750,27.5463905334472660,65,126,93,85,55,15236,2199594148,2202162084,2201821705,2150927780,2184068891,2187119286,2179350784,2150337389,2294,1,16,48526
1372981334,5806,62.5600013732910160,24.1089992523193360,35.3340988159179700,252.0034942626953000,34.5702896118164060,24.1010799407959000,27.5271205902099600,63,125,89,85,60,15248,2201951670,2203438244,2202315931,2151356717,2187393280,2189633289,2180579968,2150531748,2155,1,16,53138
1372981389,5807,59.7599983215332000,24.1417999267578120,35.3325996398925800,251.9739074707031200,33.0631103515625000,24.1478404998779300,27.5098304748535160,62,126,92,85,56,15252,2205164699,2205939209,2204267236,2151817398,2191102308,2192700425,2182331940,2150777097,2441,0,16,63279
1372981444,5811,57.0400009155273440,24.2283992767334000,35.3328018188476560,251.3003997802734400,28.9346694946289060,24.2760105133056640,27.4878196716308600,62,124,94,86,56,15243,2209402221,2209412973,2207173705,2152488402,2195681426,2196670811,2184811236,2151111195,2485,1,16,29633
1372981499,5806,54.5200004577636700,24.4909000396728500,35.3236007690429700,250.8834075927734400,22.6240901947021500,24.4720897674560550,27.4284400939941400,61,127,90,83,59,15243,2214616786,2214087680,2211366802,2153244772,2201185490,2201563428,2187968832,2151535140,2233,1,16,36404
1372981554,5808,52.4599990844726560,24.6035003662109380,35.3287010192871100,250.7955017089843800,19.7273597717285160,24.5621604919433600,27.3967399597167970,61,128,91,86,56,15241,2219316544,2218278793,2215130258,2154035309,2206283565,2205987181,2190808118,2151927899,2262,2,16,6738
1372981611,5814,50.6899986267089840,24.7003002166748050,35.3311004638671900,250.3334960937500000,15.6316699981689450,24.6895999908447270,27.3661308288574220,60,129,92,85,57,15231,2224837467,2223344822,2219873664,2155081974,2212198573,2211299638,2194381330,2152450212,2718,1,16,14578
1372981666,5807,49.1899986267089840,24.8019008636474600,35.3133010864257800,250.2048950195312500,13.2149801254272460,24.7648391723632800,27.3422794342041000,61,133,97,85,55,15221,2233121993,2231412964,2227548406,2156248576,2220445549,2219060086,2199774884,2153126134,2760,2,16,3350
1372981743,5807,47.4300003051757800,24.8118991851806640,35.2989006042480500,250.1907043457031200,11.6886196136474610,24.8123703002929700,27.3241691589355470,60,128,93,86,57,15233,2243787565,2241782089,2237633334,2158272777,2230970112,2228907081,2206702098,2154114697,3536,1,16,530
1372981853,5809,45.5099983215332000,25.1254997253417970,35.3121986389160160,248.5249023437500000,1.8030079603195190,25.1205692291259770,27.2745208740234380,60,130,90,85,58,15229,2254158683,2251591936,2246861257,2160237229,2241952786,2238959552,2213604278,2155096128,922,1,16,31880
1372981980,5809,43.5000000000000000,25.6121997833251950,35.3171997070312500,244.1708984375000000,-12.9897603988647460,25.5828208923339840,27.2816295623779300,59,130,92,87,56,15219,2264140854,2261184265,2255858742,2162672667,2252833142,2248429842,2219956717,2156178029,3312,0,16,19141
1372982261,5815,41.0699996948242200,26.1830005645751950,35.3499984741210940,237.1381988525390600,-31.4217796325683600,26.1607208251953120,27.3662300109863280,59,124,90,85,57,15244,2277128621,2273906569,2268058898,2166174921,2269122944,2262330852,2229001664,2157710884,2757,0,17,46420
1372982338,5818,39.4700012207031250,26.3572998046875000,35.3670005798339840,234.3462982177734400,-37.1744308471679700,26.3415393829345700,27.4213790893554700,59,125,91,84,62,15246,2314716717,2312862820,2307505353,2174952914,2308482112,2300527652,2256669979,2161766921,2685,1,17,46772
1372982492,5810,37.8499984741210940,26.3962993621826170,35.3708000183105500,232.7928009033203000,-39.5338897705078100,26.4157695770263670,27.4630107879638670,56,121,93,83,50,15243,2340069449,2339194386,2334680557,2182596342,2337497124,2327581705,2275848493,2164985142,3100,1,16,16420
1372982629,5809,34.7299995422363300,26.4232006072998050,35.3671989440918000,231.7673950195312500,-39.9448890686035160,26.4287109375000000,27.5045890808105470,55,120,92,83,56,15245,2341880585,2340432219,2335858633,2187816073,2351623981,2336262710,2278874157,2166288484,2142,2,16,53740
1372982684,5807,32.5200004577636700,26.4384002685546880,35.3703002929687500,231.5697937011718800,-40.4437103271484400,26.4444007873535160,27.5077400207519530,54,118,87,85,55,15248,2349354477,2347899117,2344456786,2194713115,2365841088,2347328896,2285312512,2168304996,1848,1,17,39805
1372982739,5807,30.0799999237060550,26.4423007965087900,35.3716011047363300,231.4494934082031200,-40.7104301452636700,26.4528007507324220,27.5099296569824220,54,118,89,86,56,15242,2355751104,2353509147,2350222427,2200761947,2382584768,2360669906,2293259913,2170184612,1641,0,16,55309